Regional Weather Roundup
Issued by NWS

Home | Current Version | Previous Version | Text Only | Print | Product List | Glossary Off
Versions: 1 2 3 4 5 6 7 8 9 10 11 12 13 14 15 16 17 18 19 20 21 22 23 24 25 26 27 28 29 30 31 32 33 34 35 36 37 38 39 40 41 42 43 44 45 46 47 48 49 50

000
ASUS43 KLSX 271559
RWRMO

WEATHER SUMMARY FOR MISSOURI
NATIONAL WEATHER SERVICE SPRINGFIELD MO
1100 AM CDT TUE JUN 27 2017

NOTE: "FAIR" INDICATES FEW OR NO CLOUDS BELOW 12,000 FEET WITH NO
       SIGNIFICANT WEATHER AND/OR OBSTRUCTIONS TO VISIBILITY.
       CURRENT SKY AND/OR WEATHER CONDITIONS ARE NOT AVAILABLE FOR
       CHILLICOTHE AND FARMINGTON.

MOZ001>031-035>038-043-044-053-054-271700-
...NORTHERN AND WESTERN MISSOURI...

CITY           SKY/WX    TMP DP  RH WIND       PRES   REMARKS
KANSAS CTY INT MOSUNNY   71  60  68 SE14G23   30.09F
KANSAS C DTWN  SUNNY     74  59  59 E13       30.07F
LEE`S SUMMIT   SUNNY     72  59  63 SE14      30.09F
ST JOSEPH      SUNNY     72  61  68 SE16      30.09F
CHILLICOTHE      N/A     72  59  63 SE9       30.12F
KIRKSVILLE     SUNNY     72  53  51 SE7       30.15F

$$
MOZ066>068-077>081-088>096-101>105-271700-
...SOUTHWEST MISSOURI...

CITY           SKY/WX    TMP DP  RH WIND       PRES   REMARKS
SPRINGFIELD    SUNNY     72  63  73 S12       30.12S
JOPLIN         SUNNY     79  68  69 VRB5      30.09F
BRANSON        MOSUNNY   73  63  68 SE7       30.13F

$$
MOZ032>034-039>042-045>050-055>058-069>072-271700-
...CENTRAL MISSOURI...

CITY           SKY/WX    TMP DP  RH WIND       PRES   REMARKS
COLUMBIA       SUNNY     72  59  63 SE8       30.14F
JEFFERSON CITY MOSUNNY   70  60  70 SE6       30.14F
ROLLA          SUNNY     71  57  61 SE8       30.14F
SEDALIA        SUNNY     72  63  73 E10       30.13F
WARRENSBURG    SUNNY     70  55  60 E9        30.11F
OSAGE BEACH    PTSUNNY   71  60  68 SE8       30.14F

$$
MOZ051-052-059>065-271700-
...EAST CENTRAL MISSOURI...

CITY           SKY/WX    TMP DP  RH WIND       PRES   REMARKS
ST LOUIS INTL  MOSUNNY   75  55  49 SE9       30.15F
SPIRIT OF STL  MOSUNNY   74  56  53 VRB3      30.14F
ST CHARLES     SUNNY     73  56  54 VRB5      30.14F

$$
MOZ072>076-082>087-097>100-106>115-271700-
...SOUTH CENTRAL AND SOUTHEAST MISSOURI...

CITY           SKY/WX    TMP DP  RH WIND       PRES   REMARKS
CAPE GIRARDEAU SUNNY     74  56  53 E8        30.14F
FARMINGTON     SUNNY     73  55  53 SE7       30.16F
POPLAR BLUFF   SUNNY     74  62  66 VRB5      30.13F
WEST PLAINS    MOSUNNY   71  58  63 SE6       30.16F

$$




USA.gov is the U.S. government's official web portal to all federal, state and local government web resources and services.